C/2019 M3 ( ATLAS )

Japanese version
Home page
Updated on November 10, 2019

---------------------------------------------------------------------

* Profile

Discovery Date June 30, 2019
Magnitude 19.3 mag
Discoverer Asteroid Terrestrial-Impact Last Alert System (ATLAS) search program

* Pictures

* Orbital Elements

Epoch 2018 Dec. 28.0 TT = JDT 2458480.5
T 2019 Jan. 3.05221 TT                                  Williams
q   2.4178667            (2000.0)            P               Q
z  -0.0009509      Peri.   87.93487     +0.03690571     +0.90743932
 +/-0.0000076      Node   154.89341     -0.24195409     -0.39826850
e   1.0022991      Incl.   99.43861     +0.96958557     -0.13392566
From 310 observations 2019 June 30-Oct. 25, mean residual 0".5.

* Magnitudes Graph

        m1 = 11.0 + 5 log d + 10.0 log r

---------------------------------------------------------------------

The orbital elements are published on M.P.E.C. 2019-V116.
The magnitudes graphs are made with Comet for Windows.

---------------------------------------------------------------------

Copyright(C) Seiichi Yoshida (comet@aerith.net). All rights reserved.